Weather History for Ashland, WI

Change the Weather History Date:

Saturday, October 20, 2012

  Actual Average Record
Temperature  
Mean Temperature 44 °F -  
Max Temperature 54 °F 56 °F 85 °F (1953)
Min Temperature 33 °F 30 °F 17 °F (1952)
Degree Days  
Heating Degree Days 22    
Moisture  
Dew Point 39 °F    
Average Humidity 91    
Maximum Humidity 100    
Minimum Humidity 64    
Precipitation  
Precipitation 0.00 in - - ()
Sea Level Pressure  
Sea Level Pressure 29.79 in    
Wind  
Wind Speed 2 mph (WSW)    
Max Wind Speed 8 mph    
Max Gust Speed -    
Visibility 6 miles    
Events Fog    
Averages and records for this station are not official NWS values.
T = Trace of Precipitation, MM = Missing Value Source: NWS Daily Summary

Daily Weather History Graph

Daily Weather History Graph

Search for Another Location

Airport:

Trip Planner

Search our weather history database for the weather conditions in past years. The results will help you decide how hot, cold, wet, or windy it might be!

Date:

Astronomy

Oct. 20, 2012 Rise Set
Actual Time 7:28 AM CDT 6:07 PM CDT
Civil Twilight 6:58 AM CDT 6:37 PM CDT
Nautical Twilight 6:23 AM CDT 7:12 PM CDT
Astronomical Twilight 5:48 AM CDT 7:47 PM CDT
Moon 1:15 PM CDT 10:43 PM CDT
Length of Visible Light 11h 39m
Length of Day
10h 38m
Waxing Crescent, 34% of the Moon is Illuminated
Oct 20
Waxing Crescent
Oct 21
First Quarter
Oct 29
Full
Nov 6
Last Quarter
Nov 13
New

Hourly Weather History & Observations

Time (CDT) Temp. Windchill Dew Point Humidity Pressure Visibility Wind Dir Wind Speed Gust Speed Precip Events Conditions
12:53 AM 36.0 °F 32.1 °F 35.1 °F 97% 29.76 in 8.0 mi West 4.6 mph - N/A   Mostly Cloudy
1:33 AM 37.4 °F - 37.4 °F 100% 29.75 in 10.0 mi Calm Calm - N/A   Overcast
1:46 AM 39.2 °F - 37.4 °F 93% 29.75 in 10.0 mi Calm Calm - N/A   Overcast
1:53 AM 39.0 °F 36.8 °F 37.9 °F 96% 29.77 in 10.0 mi NW 3.5 mph - N/A   Overcast
2:37 AM 39.2 °F - 39.2 °F 100% 29.74 in 2.0 mi Calm Calm - N/A   Overcast
2:44 AM 39.2 °F - 37.4 °F 93% 29.74 in 1.0 mi Calm Calm - N/A   Overcast
2:51 AM 37.4 °F - 37.4 °F 100% 29.74 in 0.5 mi Calm Calm - N/A Fog Fog
2:53 AM 37.9 °F - 37.9 °F 100% 29.75 in 0.2 mi Calm Calm - N/A Fog Fog
3:08 AM 37.4 °F - 37.4 °F 100% 29.73 in 0.2 mi Calm Calm - N/A Fog Fog
3:23 AM 37.4 °F 34.9 °F 37.4 °F 100% 29.73 in 0.5 mi West 3.5 mph - N/A Fog Fog
3:29 AM 39.2 °F 35.9 °F 37.4 °F 93% 29.74 in 1.2 mi West 4.6 mph - N/A   Overcast
3:38 AM 39.2 °F - 37.4 °F 93% 29.74 in 0.8 mi Calm Calm - N/A   Overcast
3:48 AM 39.2 °F 37.0 °F 37.4 °F 93% 29.74 in 0.5 mi WSW 3.5 mph - N/A Fog Fog
3:53 AM 39.0 °F 36.8 °F 37.9 °F 96% 29.75 in 0.5 mi WSW 3.5 mph - N/A Fog Fog
4:06 AM 39.2 °F 37.0 °F 39.2 °F 100% 29.74 in 0.5 mi SW 3.5 mph - N/A Fog Fog
4:23 AM 39.2 °F 37.0 °F 39.2 °F 100% 29.75 in 1.0 mi WSW 3.5 mph - N/A   Overcast
4:35 AM 39.2 °F 35.9 °F 39.2 °F 100% 29.75 in 0.8 mi SW 4.6 mph - N/A   Overcast
4:49 AM 41.0 °F - 39.2 °F 93% 29.75 in 0.8 mi Calm Calm - N/A   Mist
4:53 AM 39.9 °F 37.8 °F 39.9 °F 100% 29.77 in 0.8 mi SW 3.5 mph - N/A   Overcast
5:04 AM 39.2 °F 33.6 °F 39.2 °F 100% 29.76 in 1.0 mi WSW 8.1 mph - N/A   Mist
5:20 AM 39.2 °F 34.2 °F 39.2 °F 100% 29.76 in 3.0 mi WSW 6.9 mph - N/A   Overcast
5:53 AM 39.0 °F 35.7 °F 37.9 °F 96% 29.79 in 10.0 mi WSW 4.6 mph - N/A   Overcast
6:53 AM 39.9 °F 37.8 °F 39.0 °F 97% 29.80 in 10.0 mi SW 3.5 mph - N/A   Overcast
7:53 AM 39.9 °F - 39.0 °F 97% 29.82 in 10.0 mi Calm Calm - N/A   Overcast
8:53 AM 41.0 °F - 39.9 °F 96% 29.82 in 10.0 mi Calm Calm - N/A   Overcast
9:19 AM 42.8 °F - 41.0 °F 93% 29.80 in 10.0 mi Calm Calm - N/A   Overcast
9:38 AM 42.8 °F - 39.2 °F 87% 29.80 in 10.0 mi Calm Calm - N/A   Overcast
9:50 AM 42.8 °F - 39.2 °F 87% 29.80 in 10.0 mi Calm Calm - N/A   Overcast
9:53 AM 43.0 °F 41.3 °F 41.0 °F 93% 29.83 in 10.0 mi West 3.5 mph - N/A   Overcast
10:16 AM 42.8 °F 41.1 °F 39.2 °F 87% 29.81 in 10.0 mi Variable 3.5 mph - N/A   Overcast
10:53 AM 44.1 °F 40.8 °F 41.0 °F 89% 29.83 in 10.0 mi West 5.8 mph - N/A   Overcast
11:53 AM 46.9 °F - 41.0 °F 80% 29.83 in 10.0 mi Calm Calm - N/A   Overcast
1:53 PM 50.0 °F - 41.0 °F 71% 29.82 in 10.0 mi Calm Calm - N/A   Overcast
2:30 PM 51.8 °F - 42.8 °F 71% 29.79 in 10.0 mi Calm Calm - N/A   Partly Cloudy
2:43 PM 51.8 °F - 41.0 °F 67% 29.79 in 10.0 mi Calm Calm - N/A   Mostly Cloudy
2:53 PM 52.0 °F - 42.1 °F 69% 29.81 in 10.0 mi WSW 8.1 mph - N/A   Mostly Cloudy
3:11 PM 50.0 °F - 41.0 °F 71% 29.79 in 10.0 mi West 4.6 mph - N/A   Scattered Clouds
3:53 PM 54.0 °F - 42.1 °F 64% 29.80 in 10.0 mi WSW 5.8 mph - N/A   Clear
4:53 PM 53.1 °F - 41.0 °F 64% 29.81 in 10.0 mi SW 5.8 mph - N/A   Clear
5:53 PM 48.9 °F - 39.9 °F 71% 29.82 in 10.0 mi SW 3.5 mph - N/A   Clear
6:53 PM 39.0 °F - 37.9 °F 96% 29.82 in 10.0 mi Calm Calm - N/A   Clear
7:53 PM 41.0 °F 38.0 °F 37.9 °F 89% 29.83 in 10.0 mi SSW 4.6 mph - N/A   Clear
8:53 PM 35.1 °F 32.2 °F 34.0 °F 96% 29.84 in 10.0 mi South 3.5 mph - N/A   Clear
9:53 PM 36.0 °F - 35.1 °F 97% 29.86 in 9.0 mi Calm Calm - N/A   Clear
10:53 PM 34.0 °F - 32.0 °F 92% 29.86 in 10.0 mi Calm Calm - N/A   Clear
11:47 PM 33.8 °F - 33.8 °F 100% 29.84 in 1.8 mi Calm Calm - N/A   Clear
11:53 PM 33.1 °F - 32.0 °F 96% 29.87 in 0.5 mi Calm Calm - N/A Fog Fog